Regional Weather Roundup
Issued by NWS

Home | Current Version | Previous Version | Graphics & Text | Print | Product List | Glossary On
Versions: 1 2 3 4 5 6 7 8 9 10 11 12 13 14 15 16 17 18 19 20 21 22 23 24 25 26 27 28 29 30 31 32 33 34 35 36 37 38 39 40 41 42 43 44 45 46 47 48 49 50
714
ASUS43 KFSD 221310
RWRSD

WEATHER ROUNDUP FOR SOUTH DAKOTA
NATIONAL WEATHER SERVICE SIOUX FALLS SD
700 AM CST WED NOV 22 2017

NOTE: "FAIR" INDICATES FEW OR NO CLOUDS BELOW 12,000 FEET WITH NO
SIGNIFICANT WEATHER AND/OR OBSTRUCTIONS TO VISIBILITY.


SDZ001>005-009-010-012>017-221400-
NORTHWEST AND NORTH CENTRAL SOUTH DAKOTA

CITY           SKY/WX    TMP DP  RH WIND       PRES   REMARKS
BUFFALO          N/A     27  20  75 SE5       29.88F WCI  22
FAITH            N/A     21  14  74 S16       30.00F WCI   7
MOBRIDGE       CLOUDY    23  15  71 S16       30.03F WCI  10
$$

SDZ012>016-024>037-041>051-057-063-072>074-221400-
SOUTHWEST AND SOUTH CENTRAL SOUTH DAKOTA

CITY           SKY/WX    TMP DP  RH WIND       PRES   REMARKS
RAPID CTY ARPT CLOUDY    32  23  69 SW5       30.04S WCI  27
PIERRE         CLOUDY    20  14  77 SE10      30.10F WCI   9
CUSTER         CLOUDY    43  23  45 W9        30.08S
ELLSWORTH AFB  CLOUDY    31  25  78 W6        30.01F WCI  26
PHILIP         CLOUDY    22  19  89 CALM      30.06F
PINE RIDGE     CLOUDY    32  27  81 NW3       30.09F
SPEARFISH      FAIR      50  28  43 W15       30.01F
WINNER         FAIR      30  18  60 S9        30.12S WCI  22
$$

SDZ004>011-016>023-039-040-221400-
NORTHEAST SOUTH DAKOTA

CITY           SKY/WX    TMP DP  RH WIND       PRES   REMARKS
ABERDEEN       PTCLDY    12   8  84 S10       30.18F WCI  -1
WATERTOWN      CLOUDY    13  10  88 S9        30.18F WCI   1
BROOKINGS      CLOUDY    12   7  80 S8        30.24F WCI   0
SISSETON         N/A     13   8  81 S7        30.21F WCI   3
$$

SDZ017-020-022-023-036>040-048>070-221400-
SOUTHEAST SOUTH DAKOTA

CITY           SKY/WX    TMP DP  RH WIND       PRES   REMARKS
SIOUX FALLS    PTCLDY    14   8  77 S6        30.29S WCI   5
HURON          CLEAR     14   9  80 SE12      30.21F WCI   0
CHAMBERLAIN    CLOUDY    21  17  85 SE9       30.15F WCI  11
MITCHELL       CLOUDY    14  10  84 SE8       30.25F WCI   3
YANKTON        CLOUDY    11   8  88 E5        30.30F WCI   3
$$

ABBREVIATIONS USED IN REMARKS
   TC - TEMPERATURE IN CELSIUS
  WCI - WIND CHILL INDEX
   HX - HEAT INDEX
  VSB - VISIBILITY





USA.gov is the U.S. government's official web portal to all federal, state and local government web resources and services.